Regional Weather Roundup
Issued by NWS Kansas City/Pleasant Hill, MO

Home | Current Version | Previous Version | Graphics & Text | Print | Product List | Glossary Off
Versions: 1 2 3 4 5 6 7 8 9 10 11 12 13 14 15 16 17 18 19 20 21 22 23 24 25 26 27 28 29 30 31 32 33 34 35 36 37 38 39 40 41 42 43 44 45 46 47 48 49 50

168
ASUS43 KEAX 291610
RWREAX

WEATHER ROUNDUP FOR EASTERN KANSAS AND NORTHWEST MISSOURI
NATIONAL WEATHER SERVICE KANSAS CITY/PLEASANT HILL MO
1100 AM CDT SAT APR 29 2017

KSZ040-057-103>105-MOZ028-029-037-043-291700-
...KANSAS CITY METROPOLITAN AREA...

CITY           SKY/WX    TMP DP  RH WIND       PRES   REMARKS
K.C. INTL      RAIN      46  45  96 N14       29.95R FOG
K.C. DOWNTOWN  LGT RAIN  48  47  96 N12       29.92F
LEES SUMMIT    RAIN      48  47  96 NE15G25   29.89R FOG
OLATHE - IXD   RAIN      47  46  97 N14       29.92R
OLATHE - OJC   LGT RAIN  47  47 100 N14       29.91S
LAWRENCE       LGT RAIN  47  46  97 NE12G23   29.90F FOG

$$

MOZ001>008-011>017-020>025-030>033-038>040-044>046-053-054-291700-
...NORTHERN AND CENTRAL MISSOURI...

CITY           SKY/WX    TMP DP  RH WIND       PRES   REMARKS
ST. JOSEPH     HVY RAIN  45  45 100 N14       29.98R FOG
MOSBY          HVY RAIN  46  46 100 N9        29.95R
WHITEMAN AFB   TSTM      50  50 100 N16       29.83R FOG
CLINTON        TSTM      52  52 100 NE13G22   29.79R
SEDALIA        TSTM      54  54 100 NE15      29.83F FOG
WARSAW         NOT AVBL
CHILLICOTHE      N/A     48  47  96 NE12G21   29.96R
KIRKSVILLE     CLOUDY    48  30  49 NE24G31   29.95F

$$

MOZ041-047>049-056>058-063>065-088>090-097-291700-
...EASTERN AND SOUTHERN MISSOURI...

CITY           SKY/WX    TMP DP  RH WIND       PRES   REMARKS
ST. LOUIS INTL TSTM      60  57  89 E17G23    29.90F FOG
SPIRIT OF STL  TSTM      59  59 100 E10G26    29.86F FOG
COLUMBIA       TSTM      57  57 100 NE12      29.85F FOG
JEFFERSON CITY TSTM      61  57  87 VRB6G18   29.84F FOG
ROLLA          CLOUDY    61  32  33 E21G31    29.80F
OSAGE BEACH    LGT RAIN  59  58  96 NE7       29.79S
SPRINGFIELD    LGT RAIN  62  60  93 NE15      29.69F
BRANSON        FOG       64  64 100 SE14      29.70F VSB 1/2
JOPLIN         TSTM      53  53 100 N17G35    29.78R VSB 3/4
WEST PLAINS    CLOUDY    65  64  97 E6        29.78F FOG

$$

IAZ060-094-KSZ022-034>040-054-083-096-NEZ052-066-093-291700-
...KANSAS...SOUTHEAST NEBRASKA AND IOWA...

CITY           SKY/WX    TMP DP  RH WIND       PRES   REMARKS
TOPEKA         LGT RAIN  46  45  96 NE17G25   29.87F FOG
MANHATTAN      LGT RAIN  44  42  93 NE15G26   29.88F FOG
EMPORIA        LGT RAIN  45  45 100 NE21G31   29.74F
CHANUTE        LGT RAIN  50  48  93 N16G31    29.73F
WICHITA        RAIN      45  44  97 N14G22    29.82R
OMAHA          LGT RAIN  45  36  70 N20G28    30.06F
LINCOLN        CLOUDY    44  38  79 NE21G30   30.03S
FALLS CITY     LGT RAIN  44  42  93 NE13G21   29.99R
LAMONI         LGT RAIN  44  42  93 NE20G30   30.00R FOG
DES MOINES     LGT RAIN  45  38  76 E15G25    30.08S

$$





USA.gov is the U.S. government's official web portal to all federal, state and local government web resources and services.